Dewpoint
8 11 13 12 13 14 14 15 14 14 14 12 14 16 16 16 15 15 15 14 16 14 14 14 15 15 14 13 12 12 12 12 12 10 12 12 12 13 14 15 15 14 14
12 14 12 13 12 13 14 14 14 14 13 11 15 17 16 14 13 13 14 14 16 15 14 12 14 13 14 15 12 11 13 14 15 13 12 12 15 15 15 14 13 13 15
14 15 14 15 13 14 13 13 13 14 14 13 14 14 15 14 14 15 15 13 14 15 15 14 15 15 15 14 15 12 14 14 13 14 12 14 15 16 15 13 12 10 11
13 15 14 15 14 15 15 15 14 12 15 15 15 15 15 15 15 15 15 15 14 13 15 16 14 14 14 15 14 15 14 14 13 12 14 14 13 13 13 11 10 11 11
13 15 15 15 14 15 15 15 15 15 13 13 15 16 15 15 15 14 15 14 14 13 15 15 15 15 15 15 14 13 11 10 11 11 11 11 13 13 14 14 14 13 12
13 15 15 15 15 15 15 15 16 15 16 14 15 15 15 15 14 14 14 13 13 11 12 12 14 15 14 13 12 12 13 13 13 14 14 14 14 15 14 13 14 14 15
14 14 14 13 13 13 15 15 14 14 16 16 15 15 16 14 14 13 13 14 13 13 14 13 13 12 13 13 13 13 13 14 15 15 15 14 13 14 15 15 15 16 16
13 13 13 13 13 13 14 14 14 15 15 15 15 15 15 14 13 12 12 14 14 13 13 13 13 12 13 13 13 13 12 13 14 14 13 14 15 15 15 15 16 16 15
15 14 13 13 14 14 16 15 15 14 16 16 13 11 12 13 13 13 13 13 13 13 13 14 13 13 13 13 11 9 7 5 6 12 12 13 14 14 13 13 13 12 12
15 15 14 13 13 14 13 14 15 14 14 13 12 11 10 10 12 13 13 13 14 13 12 12 12 11 10 7 5 4 3 2 8 11 13 12 12 12 10 10 8 9 7
15 15 15 14 14 14 14 13 13 13 13 13 12 11 11 11 12 13 14 13 13 13 13 11 9 6 4 2 2 -1 -3 -3 6 9 10 10 9 9 9 8 5 6 7
14 15 14 14 14 14 13 14 14 13 13 13 13 13 13 13 12 12 12 12 12 11 11 10 9 5 2 -1 -6 -8 -7 4 6 8 9 8 8 8 6 3 4 5 6
14 14 14 14 14 13 13 13 13 13 13 12 12 12 12 12 11 11 11 10 10 9 9 8 6 4 -1 -6 -3 -2 5 5 6 4 3 2 2 3 -0 -2 -2 -6 -7
12 13 12 13 12 12 12 12 12 12 11 10 9 9 9 8 8 8 6 5 2 -0 -3 -7 -8 -6 -1 2 3 2 1 -2 -4 -5 -5 -7 -9 -10 -11 -12 -15 -16 -16
8 8 9 10 11 11 11 11 11 11 10 10 9 9 8 1 -5 -7 -8 -10 -12 -13 -12 -12 -9 -3 -2 -4 -10 -12 -10 -14 -17 -18 -18 -20 -20 -19 -16 -16 -15 -15 -13
2 1 4 5 7 8 8 8 9 9 9 8 8 7 2 0 -4 -17 -20 -21 -15 -5 -1 -0 -3 -9 -11 -11 -13 -13 -15 -16 -17 -17 -17 -17 -17 -16 -15 -15 -14 -14 -13
4 5 4 2 2 -0 2 5 5 3 7 6 5 2 -5 -13 -19 -20 -18 -12 -6 -4 -4 -6 -7 -6 -7 -7 -8 -8 -11 -11 -10 -13 -14 -12 -13 -13 -13 -13 -14 -13 -13
3 2 3 3 1 -1 -6 -9 -5 -5 -3 -1 -5 -14 -18 -19 -19 -17 -9 -3 -2 -1 -1 -3 -4 -4 -6 -8 -9 -10 -11 -12 -12 -13 -13 -13 -12 -12 -12 -12 -12 -11 -11
1 -0 -0 0 -0 -1 -1 -2 -3 -3 -4 -17 -18 -19 -19 -19 -17 -9 -3 -3 -3 -5 -5 -5 -6 -8 -9 -12 -13 -12 -11 -12 -12 -13 -13 -13 -12 -12 -12 -12 -11 -11 -10
-3 -1 -2 -2 -1 -1 -1 -1 -2 -1 -2 -2 -6 -13 -17 -17 -17 -16 -9 -4 -3 -3 -5 -6 -7 -11 -13 -13 -13 -13 -11 -11 -12 -12 -12 -12 -11 -11 -11 -10 -10 -9 -9
-7 -5 -2 -2 -3 -2 -2 -3 -3 -2 -2 -2 -2 -3 -6 -2 -1 -2 -3 -4 -3 -3 -4 -6 -8 -11 -12 -11 -12 -12 -12 -12 -12 -12 -11 -11 -11 -11 -11 -10 -9 -8 -8
-6 -5 -3 -2 -4 -4 -3 -4 -4 -3 -3 -3 -3 -3 -3 -9 -3 -3 -3 -3 -4 -4 -6 -8 -9 -8 -8 -10 -11 -10 -10 -10 -11 -11 -11 -12 -13 -13 -11 -8 -8 -7 -6
-1 -2 -3 -5 -7 -5 -4 -3 -3 -4 -3 -3 -3 -3 -3 -4 -8 -4 -3 -3 -3 -3 -5 -4 -5 -4 -5 -6 -6 -7 -7 -8 -9 -11 -10 -10 -12 -12 -9 -7 -6 -4 -4
-2 -2 -3 -3 -6 -3 -3 -3 -4 -3 -3 -4 -3 -3 -3 -3 -5 -4 -4 -3 -4 -3 -3 -2 -2 -2 -2 -3 -4 -4 -4 -5 -7 -9 -10 -10 -12 -11 -8 -5 -3 -3 -3
-5 -2 -2 -2 -2 -2 -3 -3 -3 -4 -3 -4 -3 -3 -3 -3 -3 -3 -3 -3 -3 -3 -3 -2 -2 -2 -2 -2 -2 -2 -5 -4 -3 -4 -6 -9 -12 -10 -7 -4 -3 -3 -3
-1 -1 -1 -1 -1 -1 -1 -1 -2 -2 -2 -3 -2 -3 -3 -1 -2 -2 -2 -1 -1 -1 -2 -2 -2 -2 -1 -1 -1 -2 -2 -2 -2 -3 -3 -5 -10 -11 -7 -4 -3 -3 -2
Wind_Speed
20 17 15 15 17 17 12 12 16 14 13 12 13 9 10 8 10 10 10 10 8 8 5 9 4 9 11 3 11 9 7 7 8 11 5 9 9 14 13 13 14 14 16
21 17 14 12 12 14 13 11 13 11 9 15 13 12 12 9 11 11 9 8 8 6 4 7 4 3 7 5 5 5 7 6 6 8 9 6 15 13 13 5 9 11 12
20 20 18 16 15 13 11 10 13 13 8 11 13 12 13 11 11 11 10 10 11 8 7 7 3 4 5 8 10 8 11 8 9 9 11 10 11 9 16 14 15 15 16
25 25 23 24 20 20 18 15 13 12 11 10 12 12 9 10 13 12 10 10 8 5 5 5 5 6 8 9 7 9 9 8 8 10 11 12 14 17 19 20 18 17 19
28 25 20 25 23 26 21 19 20 18 14 14 14 13 11 13 14 10 7 7 11 10 6 4 9 9 8 9 9 10 9 9 10 10 11 13 14 17 19 20 22 23 21
26 24 23 21 19 21 23 26 21 20 17 16 16 17 15 16 9 8 7 13 10 15 10 10 12 9 9 8 6 6 8 10 9 10 11 13 13 14 18 18 18 21 23
25 26 25 21 21 22 26 26 28 23 24 22 21 19 16 11 5 4 5 6 6 4 5 10 14 12 10 8 9 10 9 10 10 10 12 13 15 10 11 12 13 15 16
22 19 18 17 18 19 15 21 27 24 25 24 22 15 7 9 9 7 6 10 9 10 12 14 13 11 10 10 9 7 7 8 9 9 9 8 6 7 10 11 13 12 9
14 13 13 10 8 6 7 6 21 22 21 17 16 16 10 8 7 7 10 8 9 10 12 10 8 7 7 6 5 3 2 3 5 6 5 10 7 6 7 8 11 16 18
13 12 11 10 8 6 4 5 5 4 11 16 14 10 3 2 2 9 11 10 8 9 8 4 3 3 2 3 2 1 1 1 6 5 10 8 5 2 7 11 12 15 17
16 15 13 11 8 7 4 3 3 5 6 7 10 8 8 6 6 6 8 10 7 6 5 3 1 1 3 3 4 4 2 1 4 5 4 4 3 7 10 12 12 12 15
16 14 12 12 11 9 7 5 4 5 8 8 9 9 9 9 9 9 10 9 8 5 6 4 4 5 7 9 7 6 5 3 5 6 8 9 10 13 14 14 13 12 10
11 12 13 13 14 12 9 7 6 7 8 7 7 7 6 5 6 6 7 8 9 9 8 6 7 9 9 9 7 4 5 6 7 7 6 7 8 10 14 16 15 14 11
16 16 15 15 14 13 13 12 13 17 15 10 7 6 3 5 7 7 6 5 6 8 8 8 7 8 6 5 6 7 7 6 6 5 6 7 9 11 13 15 17 17 18
14 14 13 13 13 16 15 15 13 14 12 14 12 8 5 2 1 2 4 5 7 8 9 9 8 7 6 5 5 4 4 5 5 5 6 7 9 12 14 16 17 19 20
10 9 9 7 9 7 8 7 8 9 12 11 10 8 6 8 7 3 4 5 7 7 6 4 2 2 3 2 2 3 4 5 7 8 8 10 12 14 16 18 19 21 23
13 10 8 6 4 4 12 12 11 12 13 12 11 10 8 6 4 4 7 10 11 8 5 4 3 1 0 1 3 4 6 8 8 8 10 12 13 15 16 19 21 23 24
12 10 7 9 5 0 4 6 9 11 11 11 10 8 7 7 7 9 12 11 11 8 3 2 3 4 4 4 4 4 5 7 8 10 11 13 15 16 18 20 21 24 25
16 14 14 10 8 4 4 7 7 4 3 6 8 8 8 9 10 12 12 9 6 6 7 7 7 6 5 5 4 3 4 7 9 11 12 14 16 18 19 21 22 22 24
17 17 10 14 14 12 7 5 4 6 2 1 5 8 8 10 11 9 9 10 9 7 9 8 6 5 5 4 3 3 5 7 9 11 13 15 17 18 20 21 23 25 25
13 16 12 13 15 14 13 13 10 8 6 7 5 3 3 5 7 6 3 8 9 9 9 9 7 6 3 2 3 5 7 9 9 11 14 16 17 19 20 22 23 23 25
11 13 18 16 11 16 14 16 16 14 13 11 10 10 6 7 11 9 10 9 10 10 9 7 7 5 3 2 3 6 7 9 8 14 16 17 20 21 22 23 23 24 25
10 11 10 12 15 10 14 17 17 16 15 10 13 10 9 6 11 12 11 10 11 11 9 6 5 5 7 8 9 11 12 13 12 16 18 19 22 22 23 23 24 25 26
16 13 12 7 14 15 12 13 15 14 13 13 14 13 12 10 7 14 13 14 11 12 10 9 8 9 9 9 11 17 19 18 18 20 21 23 23 22 24 23 20 23 27
17 18 16 15 14 13 16 17 16 15 20 19 16 11 14 15 14 15 17 16 15 14 12 10 10 9 11 14 15 19 11 13 20 19 22 24 23 22 22 21 22 25 27
18 17 18 19 20 17 17 17 19 19 17 19 17 19 18 11 18 20 19 17 16 15 14 14 13 15 16 19 18 18 21 20 20 24 24 26 25 22 20 20 20 23 26
Wind_Direction
200 196 210 214 207 209 206 204 209 206 212 237 205 185 203 196 203 215 236 221 245 237 239 237 265 277 296 262 263 280 299 310 319 312 335 341 331 339 315 321 343 357 6
193 191 203 205 204 214 222 222 225 219 221 206 210 190 224 216 211 220 233 224 235 228 229 244 255 259 286 302 286 261 260 273 310 301 313 334 354 347 11 7 343 340 340
193 199 199 207 202 209 221 237 244 234 246 235 221 208 208 217 227 230 235 222 244 259 254 221 249 262 286 294 308 277 268 277 288 303 296 322 356 322 331 327 330 325 326
193 199 208 205 211 209 223 235 257 250 233 242 214 217 222 220 221 224 220 213 220 216 220 242 259 259 254 265 283 302 302 293 300 306 302 313 318 318 327 331 329 336 336
205 205 217 219 225 211 211 221 224 238 249 242 230 223 221 223 227 232 230 220 215 207 232 312 255 253 264 271 284 300 310 307 314 312 312 315 325 334 338 338 331 330 339
227 204 220 228 232 236 229 227 223 215 236 237 226 223 225 233 233 225 235 220 240 236 236 271 273 277 266 265 291 300 293 299 306 316 324 324 338 339 324 332 344 350 2
205 204 216 238 238 242 247 246 244 245 216 213 217 217 218 233 218 217 219 220 232 224 197 230 263 275 273 279 283 290 293 293 299 311 328 333 325 335 346 350 349 356 2
215 220 233 242 241 247 256 257 249 234 248 222 218 209 219 235 242 234 212 211 217 219 233 244 249 257 266 272 278 284 292 294 302 329 344 16 8 342 340 342 343 343 331
198 217 230 235 231 216 162 108 199 223 205 188 203 210 213 211 208 193 191 200 211 219 225 233 238 250 254 262 274 301 10 61 90 92 62 61 34 4 354 335 333 337 338
207 199 189 170 171 164 159 205 232 127 143 146 142 149 161 109 116 168 179 191 180 177 185 191 223 250 249 275 277 270 324 108 137 143 127 110 96 351 349 349 347 348 347
193 184 176 183 198 203 192 231 193 212 218 209 208 214 224 230 191 179 184 196 188 205 196 174 112 37 332 319 299 287 271 152 179 188 174 169 241 315 327 329 331 338 349
189 194 201 197 211 211 228 207 222 174 170 188 205 206 209 208 204 186 179 174 182 198 184 206 287 300 293 291 297 297 277 252 246 239 248 276 295 299 307 319 315 318 330
194 195 196 193 186 183 183 193 202 175 164 168 181 173 178 188 194 193 206 199 207 219 230 243 250 257 271 272 275 273 256 284 292 292 301 312 317 311 309 307 306 311 309
172 176 180 181 173 169 169 163 159 146 143 148 161 178 166 160 164 175 194 207 220 237 236 234 230 237 229 250 261 283 289 300 314 324 318 316 309 306 311 320 324 326 324
139 140 151 156 152 155 154 157 160 163 159 163 173 232 273 207 175 229 235 238 220 201 189 203 211 219 234 235 261 280 300 309 316 332 326 322 324 329 333 333 334 334 333
139 138 137 151 175 184 171 173 183 190 188 194 206 221 256 274 286 235 188 164 157 165 164 177 195 181 204 258 294 327 333 342 346 345 338 335 339 341 342 340 339 340 338
142 152 142 150 128 177 216 221 220 226 218 221 227 249 260 225 209 168 148 140 144 152 154 149 143 122 79 342 332 340 338 348 353 341 344 344 348 351 349 345 344 341 339
162 161 155 225 196 170 124 168 197 221 212 230 232 217 194 177 160 153 148 149 152 154 185 219 220 239 272 294 306 323 330 329 333 340 346 345 348 349 349 347 348 345 343
179 178 174 187 215 211 129 99 116 136 125 193 184 177 172 163 163 162 158 166 188 205 213 221 243 271 300 307 322 332 329 330 337 344 348 350 349 349 349 347 345 343 339
180 177 191 197 192 186 177 177 208 202 170 348 172 162 163 167 169 177 189 198 214 222 235 250 248 251 256 268 282 304 321 323 339 352 353 353 352 351 349 347 345 341 338
204 198 205 202 209 197 195 193 173 187 202 202 207 198 95 161 167 161 199 206 216 232 245 256 259 239 249 304 316 335 328 329 347 353 352 353 354 352 350 347 342 337 334
206 214 214 223 217 208 196 202 200 198 199 206 218 229 234 207 175 206 238 252 253 251 258 250 243 251 264 302 329 339 333 334 349 348 350 351 348 345 346 343 338 338 339
201 230 237 231 221 204 216 219 211 207 212 216 222 225 251 245 222 220 244 259 267 278 289 280 279 286 303 325 329 329 328 332 339 339 339 340 341 342 341 341 345 349 349
198 220 244 245 216 209 221 230 217 217 221 227 240 246 244 240 238 216 241 256 260 269 282 281 295 300 306 303 328 338 329 326 335 337 336 335 335 336 343 347 352 345 343
210 210 228 246 252 244 237 237 253 241 230 226 235 244 248 259 262 233 240 251 260 263 263 273 280 278 280 296 312 335 327 335 343 335 335 334 334 337 338 343 350 345 343
235 225 223 235 237 242 251 250 249 252 249 236 235 237 242 242 246 247 246 247 248 251 253 265 273 265 270 286 293 319 328 324 327 329 325 332 332 331 331 334 345 342 339
Height
1569 1573 1577 1580 1581 1583 1584 1586 1588 1590 1591 1592 1593 1593 1595 1597 1599 1600 1603 1605 1607 1608 1610 1611 1612 1612 1612 1611 1610 1608 1607 1605 1606 1606 1604 1601 1598 1594 1594 1594 1593 1591 1587
1567 1571 1574 1579 1580 1582 1584 1585 1586 1588 1589 1591 1592 1591 1593 1594 1595 1598 1600 1603 1605 1607 1609 1608 1609 1609 1609 1608 1607 1606 1606 1607 1606 1602 1599 1596 1595 1592 1593 1592 1591 1587 1584
1566 1569 1572 1575 1578 1580 1582 1584 1585 1587 1588 1588 1588 1590 1591 1592 1593 1596 1598 1599 1602 1604 1607 1608 1607 1607 1607 1606 1606 1606 1605 1605 1602 1599 1596 1595 1593 1591 1590 1589 1587 1584 1581
1562 1567 1571 1573 1576 1577 1580 1582 1584 1583 1585 1587 1588 1589 1590 1591 1591 1592 1594 1596 1599 1602 1603 1605 1605 1604 1605 1603 1603 1603 1602 1600 1599 1596 1594 1593 1591 1589 1587 1584 1581 1580 1578
1558 1561 1568 1571 1573 1574 1576 1578 1581 1581 1582 1584 1586 1587 1586 1588 1589 1589 1591 1593 1595 1598 1600 1601 1601 1600 1601 1601 1600 1599 1598 1597 1595 1594 1593 1591 1589 1587 1584 1582 1580 1577 1575
1554 1559 1563 1568 1570 1571 1573 1574 1577 1577 1580 1583 1583 1584 1584 1583 1587 1587 1588 1591 1593 1593 1593 1596 1598 1596 1597 1597 1597 1596 1595 1595 1594 1593 1591 1589 1588 1586 1582 1580 1577 1573 1571
1553 1557 1561 1564 1566 1566 1567 1570 1571 1572 1575 1573 1578 1580 1580 1581 1583 1583 1585 1587 1589 1591 1591 1594 1595 1595 1595 1595 1595 1594 1594 1593 1591 1590 1589 1587 1584 1582 1580 1578 1575 1574 1573
1550 1553 1553 1557 1560 1560 1561 1561 1564 1566 1565 1569 1571 1575 1576 1577 1579 1580 1582 1583 1587 1590 1592 1594 1593 1592 1592 1592 1592 1591 1591 1590 1589 1588 1587 1586 1584 1581 1578 1576 1574 1573 1573
1544 1547 1550 1555 1557 1557 1559 1559 1554 1557 1563 1565 1568 1570 1574 1574 1576 1577 1578 1582 1584 1586 1588 1588 1589 1589 1589 1589 1589 1589 1589 1589 1588 1587 1586 1585 1583 1580 1578 1575 1572 1570 1569
1541 1545 1549 1554 1556 1557 1557 1558 1560 1559 1559 1561 1564 1569 1572 1572 1575 1576 1576 1579 1581 1583 1585 1586 1587 1587 1587 1587 1587 1587 1587 1587 1587 1586 1584 1582 1579 1578 1577 1573 1571 1570 1569
1542 1547 1549 1552 1555 1556 1556 1557 1561 1561 1562 1565 1566 1567 1567 1571 1574 1576 1577 1578 1579 1581 1584 1586 1587 1587 1587 1585 1584 1583 1582 1583 1583 1583 1581 1580 1578 1576 1575 1574 1573 1572 1570
1543 1547 1550 1550 1553 1555 1556 1556 1559 1561 1562 1564 1565 1566 1568 1571 1573 1575 1576 1578 1579 1580 1582 1584 1585 1584 1582 1582 1582 1581 1582 1582 1581 1580 1579 1578 1576 1575 1573 1574 1573 1573 1572
1544 1546 1548 1550 1552 1554 1556 1557 1557 1558 1560 1562 1563 1565 1566 1568 1570 1572 1576 1576 1578 1580 1580 1581 1581 1581 1581 1580 1580 1580 1581 1580 1580 1577 1576 1575 1573 1572 1572 1572 1571 1569 1568
1544 1545 1549 1550 1552 1553 1555 1555 1557 1559 1561 1562 1561 1563 1567 1567 1567 1568 1574 1575 1576 1578 1578 1578 1578 1578 1578 1579 1578 1579 1578 1577 1576 1574 1573 1571 1571 1569 1569 1568 1566 1564 1562
1545 1547 1550 1550 1553 1553 1554 1557 1558 1559 1561 1564 1562 1563 1566 1568 1567 1567 1569 1572 1573 1572 1575 1576 1575 1575 1576 1576 1576 1576 1576 1575 1575 1572 1571 1568 1567 1567 1566 1564 1563 1561 1559
1548 1549 1551 1552 1554 1556 1556 1557 1559 1561 1560 1563 1564 1565 1563 1566 1568 1567 1567 1567 1570 1573 1572 1573 1576 1575 1574 1575 1574 1573 1574 1574 1572 1571 1569 1568 1565 1564 1564 1563 1561 1558 1556
1548 1549 1550 1552 1554 1556 1554 1558 1558 1560 1559 1562 1562 1564 1563 1564 1567 1567 1567 1567 1568 1571 1573 1572 1572 1575 1574 1574 1575 1574 1572 1572 1572 1570 1568 1568 1566 1563 1560 1560 1557 1556 1553
1549 1550 1550 1552 1552 1553 1553 1554 1555 1560 1556 1559 1561 1562 1563 1564 1564 1568 1568 1570 1569 1570 1572 1572 1573 1573 1573 1576 1577 1575 1573 1572 1572 1570 1567 1566 1566 1564 1560 1559 1554 1553 1550
1548 1549 1551 1550 1552 1554 1554 1554 1554 1558 1559 1560 1561 1561 1562 1563 1566 1568 1568 1569 1569 1568 1571 1573 1572 1572 1573 1576 1576 1574 1572 1570 1571 1569 1568 1567 1565 1561 1558 1556 1554 1552 1551
1545 1546 1548 1551 1552 1552 1552 1552 1553 1557 1560 1561 1561 1562 1563 1564 1564 1567 1569 1569 1568 1569 1571 1571 1571 1571 1573 1576 1576 1572 1569 1569 1569 1568 1567 1564 1562 1559 1556 1554 1551 1548 1547
1544 1547 1549 1552 1552 1552 1554 1554 1555 1555 1558 1559 1562 1564 1565 1566 1565 1566 1568 1569 1568 1570 1570 1572 1572 1570 1570 1572 1572 1570 1569 1568 1568 1567 1566 1563 1559 1556 1553 1550 1547 1546 1542
1542 1545 1547 1549 1550 1551 1551 1552 1556 1559 1560 1559 1559 1561 1562 1563 1565 1567 1567 1568 1569 1569 1570 1569 1571 1570 1569 1568 1568 1568 1568 1567 1565 1564 1563 1561 1559 1555 1550 1548 1545 1542 1539
1541 1543 1545 1546 1547 1549 1551 1552 1554 1556 1557 1556 1558 1559 1560 1560 1562 1563 1565 1566 1567 1566 1567 1568 1567 1568 1567 1565 1565 1566 1566 1564 1562 1560 1560 1558 1555 1551 1547 1544 1541 1537 1534
1540 1542 1543 1544 1545 1547 1548 1550 1551 1553 1553 1554 1555 1555 1556 1557 1558 1560 1563 1565 1566 1566 1566 1566 1566 1566 1566 1566 1565 1565 1563 1561 1560 1557 1555 1554 1552 1549 1544 1540 1538 1536 1532
1537 1539 1541 1542 1543 1545 1546 1546 1547 1549 1550 1552 1552 1552 1553 1554 1556 1557 1560 1562 1563 1564 1564 1564 1563 1563 1562 1563 1564 1563 1561 1560 1557 1556 1554 1552 1548 1544 1542 1537 1535 1533 1531
1534 1535 1536 1538 1539 1540 1541 1542 1543 1545 1546 1547 1548 1549 1550 1551 1553 1555 1556 1557 1558 1558 1559 1560 1559 1559 1558 1559 1559 1559 1557 1555 1554 1552 1550 1548 1544 1541 1538 1536 1534 1531 1528